Time,TemperatureF,DewpointF,PressureIn,WindDirection,WindDirectionDegrees,WindSpeedMPH,WindSpeedGustMPH,Humidity,HourlyPrecipIn,Conditions,Clouds,dailyrainin,SolarRadiationWatts/m^2,SoftwareType,DateUTC
2013-01-25 00:00:00,58.3,54.1,30.00,ESE,103,1.0,3.0,86,0.00,CLR,SCT,0.00,0.0,WeatherDisplay:10.37,2013-01-25 10:00:00,
2013-01-25 00:10:00,58.1,53.9,29.99,ESE,103,1.0,2.0,86,0.00,CLR,SCT,0.00,0.0,WeatherDisplay:10.37,2013-01-25 10:10:00,
2013-01-25 00:20:00,57.9,53.4,29.99,ESE,103,1.0,3.0,85,0.00,CLR,SCT,0.00,0.0,WeatherDisplay:10.37,2013-01-25 10:20:00,
2013-01-25 00:30:00,57.8,53.3,29.99,ESE,103,1.0,3.0,85,0.00,CLR,SCT,0.00,0.0,WeatherDisplay:10.37,2013-01-25 10:30:00,
2013-01-25 00:40:00,57.5,52.7,29.99,ESE,103,0.0,3.0,84,0.00,CLR,SCT,0.00,0.0,WeatherDisplay:10.37,2013-01-25 10:40:00,
2013-01-25 00:50:00,57.5,52.7,29.99,ESE,103,0.0,2.0,84,0.00,CLR,SCT,0.00,0.0,WeatherDisplay:10.37,2013-01-25 10:50:00,
2013-01-25 01:00:00,57.4,52.9,29.99,ESE,103,1.0,3.0,85,0.00,CLR,SCT,0.00,0.0,WeatherDisplay:10.37,2013-01-25 11:00:00,
2013-01-25 01:10:00,57.4,53.6,29.99,ESE,103,1.0,2.0,87,0.00,CLR,SCT,0.00,0.0,WeatherDisplay:10.37,2013-01-25 11:10:00,
2013-01-25 01:20:00,57.5,53.3,29.98,ESE,103,0.0,2.0,86,0.00,CLR,SCT,0.00,0.0,WeatherDisplay:10.37,2013-01-25 11:20:00,
2013-01-25 01:30:00,57.2,53.1,29.99,ESE,103,0.0,1.0,86,0.00,CLR,SCT,0.00,0.0,WeatherDisplay:10.37,2013-01-25 11:30:00,
2013-01-25 01:40:00,57.2,53.7,29.99,ESE,103,1.0,2.0,88,0.00,CLR,SCT,0.00,0.0,WeatherDisplay:10.37,2013-01-25 11:40:00,
2013-01-25 01:50:00,57.4,53.9,29.98,ESE,103,1.0,2.0,88,0.00,CLR,SCT,0.00,0.0,WeatherDisplay:10.37,2013-01-25 11:50:00,
2013-01-25 02:00:00,57.7,54.2,29.98,ESE,110,0.0,3.0,88,0.00,CLR,SCT,0.00,0.0,WeatherDisplay:10.37,2013-01-25 12:00:00,
2013-01-25 02:10:00,57.9,54.4,29.97,ESE,107,1.0,2.0,88,0.00,CLR,SCT,0.00,0.0,WeatherDisplay:10.37,2013-01-25 12:10:00,
2013-01-25 02:20:00,57.8,54.0,29.97,ESE,106,0.0,2.0,87,0.00,CLR,SCT,0.00,0.0,WeatherDisplay:10.37,2013-01-25 12:20:00,
2013-01-25 02:30:00,57.6,53.4,29.97,ESE,107,0.0,3.0,86,0.00,CLR,SCT,0.00,0.0,WeatherDisplay:10.37,2013-01-25 12:30:00,
2013-01-25 02:40:00,57.5,53.3,29.97,ESE,108,1.0,3.0,86,0.00,CLR,SCT,0.00,0.0,WeatherDisplay:10.37,2013-01-25 12:40:00,
2013-01-25 02:50:00,57.4,53.3,29.97,ESE,108,1.0,2.0,86,0.00,CLR,SCT,0.00,0.0,WeatherDisplay:10.37,2013-01-25 12:50:00,
2013-01-25 03:00:00,57.3,53.1,29.97,ESE,113,0.0,3.0,86,0.00,CLR,SCT,0.00,0.0,WeatherDisplay:10.37,2013-01-25 13:00:00,
2013-01-25 03:10:00,57.4,53.3,29.97,ESE,116,2.0,3.0,86,0.00,CLR,SCT,0.00,0.0,WeatherDisplay:10.37,2013-01-25 13:10:00,
2013-01-25 03:20:00,57.4,53.2,29.97,ESE,116,1.0,3.0,86,0.00,CLR,SCT,0.00,0.0,WeatherDisplay:10.37,2013-01-25 13:20:00,
2013-01-25 03:30:00,57.5,53.3,29.97,ESE,110,1.0,3.0,86,0.00,CLR,SCT,0.00,0.0,WeatherDisplay:10.37,2013-01-25 13:30:00,
2013-01-25 03:40:00,57.3,53.1,29.97,ESE,107,0.0,2.0,86,0.00,CLR,SCT,0.00,0.0,WeatherDisplay:10.37,2013-01-25 13:40:00,
2013-01-25 03:50:00,57.0,52.9,29.97,ESE,107,2.0,4.0,86,0.00,CLR,SCT,0.00,0.0,WeatherDisplay:10.37,2013-01-25 13:50:00,
2013-01-25 04:00:00,56.8,52.6,29.97,ESE,105,2.0,3.0,86,0.00,CLR,SCT,0.00,0.0,WeatherDisplay:10.37,2013-01-25 14:00:00,
2013-01-25 04:10:00,56.6,52.8,29.97,ESE,104,2.0,3.0,87,0.00,CLR,SCT,0.00,0.0,WeatherDisplay:10.37,2013-01-25 14:10:00,
2013-01-25 04:20:00,56.4,52.5,29.97,ESE,104,0.0,3.0,87,0.00,CLR,SCT,0.00,0.0,WeatherDisplay:10.37,2013-01-25 14:20:00,
2013-01-25 04:30:00,56.3,52.8,29.97,ESE,106,0.0,2.0,88,0.00,CLR,SCT,0.00,0.0,WeatherDisplay:10.37,2013-01-25 14:30:00,
2013-01-25 04:40:00,56.2,52.7,29.97,ESE,106,0.0,3.0,88,0.00,CLR,SCT,0.00,0.0,WeatherDisplay:10.37,2013-01-25 14:40:00,
2013-01-25 04:50:00,56.0,52.5,29.97,ESE,105,2.0,3.0,88,0.00,CLR,SCT,0.00,0.0,WeatherDisplay:10.37,2013-01-25 14:50:00,
2013-01-25 05:00:00,55.9,52.4,29.97,ESE,104,1.0,4.0,88,0.00,CLR,SCT,0.00,0.0,WeatherDisplay:10.37,2013-01-25 15:00:00,
2013-01-25 05:10:00,55.8,52.0,29.96,ESE,106,1.0,3.0,87,0.00,CLR,SCT,0.00,0.0,WeatherDisplay:10.37,2013-01-25 15:10:00,
2013-01-25 05:20:00,55.8,52.0,29.97,ESE,106,1.0,4.0,87,0.00,CLR,SCT,0.00,0.0,WeatherDisplay:10.37,2013-01-25 15:20:00,
2013-01-25 05:30:00,55.7,51.9,29.97,ESE,106,0.0,2.0,87,0.00,CLR,SCT,0.00,0.0,WeatherDisplay:10.37,2013-01-25 15:30:00,
2013-01-25 05:40:00,55.6,52.1,29.97,ESE,106,0.0,3.0,88,0.00,CLR,SCT,0.00,0.0,WeatherDisplay:10.37,2013-01-25 15:40:00,
2013-01-25 05:50:00,55.5,52.3,29.97,ESE,106,0.0,2.0,89,0.00,CLR,SCT,0.00,0.0,WeatherDisplay:10.37,2013-01-25 15:50:00,
2013-01-25 06:00:00,55.6,52.7,29.97,ESE,105,2.0,3.0,90,0.00,CLR,SCT,0.00,0.0,WeatherDisplay:10.37,2013-01-25 16:00:00,
2013-01-25 06:10:00,55.7,52.8,29.98,ESE,104,1.0,3.0,90,0.00,CLR,SCT,0.00,0.0,WeatherDisplay:10.37,2013-01-25 16:10:00,
2013-01-25 06:20:00,56.0,53.4,29.97,ESE,104,0.0,2.0,91,0.00,CLR,SCT,0.00,0.0,WeatherDisplay:10.37,2013-01-25 16:20:00,
2013-01-25 06:30:00,56.3,53.7,29.98,ESE,104,1.0,3.0,91,0.00,CLR,SCT,0.00,0.0,WeatherDisplay:10.37,2013-01-25 16:30:00,
2013-01-25 06:40:00,56.6,54.0,29.98,ESE,104,0.0,5.0,91,0.00,CLR,SCT,0.00,0.0,WeatherDisplay:10.37,2013-01-25 16:40:00,
2013-01-25 06:50:00,56.7,53.8,29.98,ESE,106,0.0,4.0,90,0.00,CLR,SCT,0.00,0.0,WeatherDisplay:10.37,2013-01-25 16:50:00,
2013-01-25 07:00:00,56.8,54.2,29.98,ESE,107,0.0,2.0,91,0.00,CLR,SCT,0.00,0.0,WeatherDisplay:10.37,2013-01-25 17:00:00,
2013-01-25 07:10:00,57.0,54.1,29.99,ESE,107,0.0,2.0,90,0.00,CLR,SCT,0.00,5.4,WeatherDisplay:10.37,2013-01-25 17:10:00,
2013-01-25 07:20:00,57.0,54.4,29.99,ESE,107,0.0,2.0,91,0.00,CLR,SCT,0.00,9.0,WeatherDisplay:10.37,2013-01-25 17:20:00,
2013-01-25 07:30:00,57.2,54.6,29.99,ESE,107,1.0,2.0,91,0.00,CLR,SCT,0.00,13.1,WeatherDisplay:10.37,2013-01-25 17:30:00,
2013-01-25 07:40:00,57.6,55.0,30.00,ESE,107,0.0,2.0,91,0.00,CLR,SCT,0.00,17.6,WeatherDisplay:10.37,2013-01-25 17:40:00,
2013-01-25 07:50:00,57.8,55.2,29.99,ESE,107,1.0,3.0,91,0.00,CLR,SCT,0.00,19.8,WeatherDisplay:10.37,2013-01-25 17:50:00,
2013-01-25 08:00:00,58.2,55.3,29.99,ESE,110,0.0,5.0,90,0.00,CLR,SCT,0.00,22.1,WeatherDisplay:10.37,2013-01-25 18:00:00,
2013-01-25 08:10:00,59.1,56.2,29.99,ESE,115,0.0,1.0,90,0.00,CLR,SCT,0.00,74.8,WeatherDisplay:10.37,2013-01-25 18:10:00,
2013-01-25 08:20:00,59.8,56.8,29.99,ESE,115,0.0,0.0,90,0.00,CLR,SCT,0.00,232.9,WeatherDisplay:10.37,2013-01-25 18:20:00,
2013-01-25 08:30:00,61.5,58.2,29.99,ESE,115,0.0,0.0,89,0.00,CLR,SCT,0.00,249.6,WeatherDisplay:10.37,2013-01-25 18:30:00,
2013-01-25 08:40:00,64.2,59.6,30.00,ESE,115,0.0,0.0,85,0.00,CLR,SCT,0.00,260.8,WeatherDisplay:10.37,2013-01-25 18:40:00,
2013-01-25 08:50:00,67.8,60.6,30.00,ESE,109,0.0,2.0,78,0.00,CLR,SCT,0.00,270.3,WeatherDisplay:10.37,2013-01-25 18:50:00,
2013-01-25 09:00:00,68.9,59.9,30.00,ENE,71,0.0,2.0,73,0.00,CLR,SCT,0.00,278.4,WeatherDisplay:10.37,2013-01-25 19:00:00,
2013-01-25 09:10:00,69.4,60.8,30.01,NE,45,2.0,6.0,74,0.00,FEW,SCT,0.00,286.1,WeatherDisplay:10.37,2013-01-25 19:10:00,
2013-01-25 09:20:00,70.4,60.9,30.00,NE,36,0.0,4.0,72,0.00,FEW,SCT,0.00,294.6,WeatherDisplay:10.37,2013-01-25 19:20:00,
2013-01-25 09:30:00,71.2,61.3,30.01,North,360,1.0,3.0,71,0.00,FEW,SCT,0.00,301.4,WeatherDisplay:10.37,2013-01-25 19:30:00,
2013-01-25 09:40:00,71.7,60.6,30.00,NNW,339,5.0,5.0,68,0.00,FEW,SCT,0.00,305.9,WeatherDisplay:10.37,2013-01-25 19:40:00,
2013-01-25 09:50:00,71.9,61.2,30.00,WNW,296,0.0,6.0,69,0.00,FEW,SCT,0.00,311.3,WeatherDisplay:10.37,2013-01-25 19:50:00,
2013-01-25 10:00:00,72.8,61.2,30.00,WNW,303,1.0,5.0,67,0.00,FEW,SCT,0.00,315.8,WeatherDisplay:10.37,2013-01-25 20:00:00,
2013-01-25 10:10:00,73.0,61.0,30.00,West,281,0.0,5.0,66,0.00,FEW,SCT,0.00,319.9,WeatherDisplay:10.37,2013-01-25 20:10:00,
2013-01-25 10:20:00,73.9,61.8,30.00,West,279,0.0,4.0,66,0.00,FEW,SCT,0.00,324.4,WeatherDisplay:10.37,2013-01-25 20:20:00,
2013-01-25 10:30:00,74.6,63.4,30.00,West,267,5.0,6.0,68,0.00,FEW,SCT,0.00,327.5,WeatherDisplay:10.37,2013-01-25 20:30:00,
2013-01-25 10:40:00,74.8,63.5,30.00,WNW,287,0.0,4.0,68,0.00,FEW,SCT,0.00,319.0,WeatherDisplay:10.37,2013-01-25 20:40:00,
2013-01-25 10:50:00,75.1,63.4,30.00,NW,322,3.0,5.0,67,0.00,FEW,SCT,0.00,336.5,WeatherDisplay:10.37,2013-01-25 20:50:00,
2013-01-25 11:00:00,75.6,63.9,29.99,NNW,334,0.0,4.0,67,0.00,FEW,SCT,0.00,363.1,WeatherDisplay:10.37,2013-01-25 21:00:00,
2013-01-25 11:10:00,76.6,65.2,29.99,SW,234,2.0,6.0,68,0.00,FEW,SCT,0.00,382.5,WeatherDisplay:10.37,2013-01-25 21:10:00,
2013-01-25 11:20:00,77.1,64.9,29.98,WNW,287,2.0,5.0,66,0.00,FEW,SCT,0.00,370.8,WeatherDisplay:10.37,2013-01-25 21:20:00,
2013-01-25 11:30:00,76.9,64.3,29.98,NW,305,2.0,7.0,65,0.00,FEW,SCT,0.00,173.9,WeatherDisplay:10.37,2013-01-25 21:30:00,
2013-01-25 11:40:00,77.0,65.2,29.98,NNW,336,3.0,6.0,67,0.00,FEW,SCT,0.00,369.4,WeatherDisplay:10.37,2013-01-25 21:40:00,
2013-01-25 11:50:00,77.0,65.2,29.97,West,270,6.0,8.0,67,0.00,FEW,SCT,0.00,389.2,WeatherDisplay:10.37,2013-01-25 21:50:00,
2013-01-25 12:00:00,77.3,64.6,29.97,WSW,243,3.0,8.0,65,0.00,FEW,SCT,0.00,358.6,WeatherDisplay:10.37,2013-01-25 22:00:00,
2013-01-25 12:10:00,77.5,64.8,29.97,WSW,249,5.0,6.0,65,0.00,FEW,SCT,0.00,355.0,WeatherDisplay:10.37,2013-01-25 22:10:00,
2013-01-25 12:20:00,78.0,64.8,29.96,WSW,248,3.0,7.0,64,0.00,FEW,SCT,0.00,357.2,WeatherDisplay:10.37,2013-01-25 22:20:00,
2013-01-25 12:30:00,78.6,64.5,29.96,South,184,0.0,5.0,62,0.00,FEW,SCT,0.00,361.8,WeatherDisplay:10.37,2013-01-25 22:30:00,
2013-01-25 12:40:00,79.2,64.1,29.95,WSW,242,0.0,5.0,60,0.00,FEW,SCT,0.00,358.6,WeatherDisplay:10.37,2013-01-25 22:40:00,
2013-01-25 12:50:00,79.3,65.1,29.95,ENE,64,5.0,12.0,62,0.00,FEW,SCT,0.00,358.6,WeatherDisplay:10.37,2013-01-25 22:50:00,
2013-01-25 13:00:00,78.2,64.6,29.94,ENE,62,2.0,12.0,63,0.00,FEW,SCT,0.00,367.2,WeatherDisplay:10.37,2013-01-25 23:00:00,
2013-01-25 13:10:00,78.5,65.3,29.94,NNE,27,3.0,13.0,64,0.00,FEW,SCT,0.00,358.6,WeatherDisplay:10.37,2013-01-25 23:10:00,
2013-01-25 13:20:00,79.8,65.6,29.93,NE,49,10.0,16.0,62,0.00,FEW,SCT,0.00,353.2,WeatherDisplay:10.37,2013-01-25 23:20:00,
2013-01-25 13:40:00,79.6,64.5,29.93,NE,34,7.0,10.0,60,0.00,FEW,SCT,0.00,86.9,WeatherDisplay:10.37,2013-01-25 23:40:00,
2013-01-25 13:50:00,77.2,63.6,29.93,ENE,61,8.0,15.0,63,0.00,FEW,SCT,0.00,72.5,WeatherDisplay:10.37,2013-01-25 23:50:00,
2013-01-25 14:00:00,75.9,63.3,29.93,ENE,71,5.0,10.0,65,0.00,FEW,SCT,0.00,74.8,WeatherDisplay:10.37,2013-01-26 00:00:00,
2013-01-25 14:10:00,75.0,63.3,29.93,ENE,65,5.0,8.0,67,0.00,FEW,SCT,0.00,75.7,WeatherDisplay:10.37,2013-01-26 00:10:00,
2013-01-25 14:20:00,74.4,63.1,29.92,ENE,60,5.0,8.0,68,0.00,FEW,SCT,0.00,72.5,WeatherDisplay:10.37,2013-01-26 00:20:00,
2013-01-25 14:30:00,73.5,62.7,29.93,ENE,74,6.0,9.0,69,0.00,FEW,SCT,0.00,49.6,WeatherDisplay:10.37,2013-01-26 00:30:00,
2013-01-25 14:40:00,72.6,63.1,29.93,ENE,76,5.0,8.0,72,0.00,FEW,SCT,0.00,73.9,WeatherDisplay:10.37,2013-01-26 00:40:00,
2013-01-25 14:50:00,72.3,62.8,29.93,East,91,2.0,8.0,72,0.00,FEW,SCT,0.00,69.4,WeatherDisplay:10.37,2013-01-26 00:50:00,
2013-01-25 15:00:00,72.5,63.4,29.93,East,85,2.0,5.0,73,0.00,FEW,SCT,0.00,144.2,WeatherDisplay:10.37,2013-01-26 01:00:00,
2013-01-25 15:10:00,73.2,64.0,29.93,ENE,62,1.0,6.0,73,0.00,SCT,SCT,0.00,135.2,WeatherDisplay:10.37,2013-01-26 01:10:00,
2013-01-25 15:20:00,73.9,64.3,29.92,East,80,6.0,8.0,72,0.00,SCT,SCT,0.00,137.4,WeatherDisplay:10.37,2013-01-26 01:20:00,
2013-01-25 15:30:00,73.7,64.1,29.92,ENE,65,1.0,8.0,72,0.00,SCT,SCT,0.00,103.2,WeatherDisplay:10.37,2013-01-26 01:30:00,
2013-01-25 15:40:00,73.8,64.2,29.92,NE,46,1.0,7.0,72,0.00,SCT,SCT,0.00,109.9,WeatherDisplay:10.37,2013-01-26 01:40:00,
2013-01-25 15:50:00,73.5,63.5,29.92,ENE,73,2.0,8.0,71,0.00,SCT,SCT,0.00,109.0,WeatherDisplay:10.37,2013-01-26 01:50:00,
2013-01-25 16:00:00,73.3,63.7,29.92,ENE,67,2.0,9.0,72,0.00,SCT,SCT,0.00,162.6,WeatherDisplay:10.37,2013-01-26 02:00:00,
2013-01-25 16:10:00,73.3,63.7,29.92,ENE,61,1.0,9.0,72,0.00,SCT,SCT,0.00,112.2,WeatherDisplay:10.37,2013-01-26 02:10:00,
2013-01-25 16:20:00,72.9,63.3,29.92,ENE,70,5.0,10.0,72,0.00,SCT,SCT,0.00,65.8,WeatherDisplay:10.37,2013-01-26 02:20:00,
2013-01-25 16:30:00,72.3,62.8,29.93,East,84,2.0,7.0,72,0.00,SCT,SCT,0.00,122.1,WeatherDisplay:10.37,2013-01-26 02:30:00,
2013-01-25 16:40:00,72.0,62.5,29.93,ENE,75,5.0,8.0,72,0.00,SCT,SCT,0.00,102.3,WeatherDisplay:10.37,2013-01-26 02:40:00,
2013-01-25 16:50:00,71.7,62.6,29.93,ENE,75,5.0,7.0,73,0.00,SCT,SCT,0.00,100.0,WeatherDisplay:10.37,2013-01-26 02:50:00,
2013-01-25 17:00:00,71.5,62.4,29.93,ENE,74,3.0,9.0,73,0.00,SCT,SCT,0.00,115.3,WeatherDisplay:10.37,2013-01-26 03:00:00,
2013-01-25 17:10:00,71.6,62.5,29.94,East,89,1.0,5.0,73,0.00,SCT,SCT,0.00,62.6,WeatherDisplay:10.37,2013-01-26 03:10:00,
2013-01-25 17:20:00,71.7,62.6,29.94,ENE,69,0.0,3.0,73,0.00,SCT,SCT,0.00,155.0,WeatherDisplay:10.37,2013-01-26 03:20:00,
2013-01-25 17:30:00,72.0,64.7,29.95,WSW,245,5.0,8.0,78,0.00,SCT,SCT,0.00,55.0,WeatherDisplay:10.37,2013-01-26 03:30:00,
2013-01-25 17:40:00,71.2,64.7,29.95,SW,236,3.0,9.0,80,0.00,SCT,SCT,0.00,61.7,WeatherDisplay:10.37,2013-01-26 03:40:00,
2013-01-25 17:50:00,70.4,64.3,29.95,SW,232,2.0,9.0,81,0.00,SCT,SCT,0.00,62.6,WeatherDisplay:10.37,2013-01-26 03:50:00,
2013-01-25 18:00:00,70.1,64.0,29.95,WSW,243,0.0,5.0,81,0.00,SCT,SCT,0.00,9.0,WeatherDisplay:10.37,2013-01-26 04:00:00,
2013-01-25 18:10:00,69.8,63.0,29.96,North,356,0.0,4.0,79,0.00,SCT,SCT,0.00,0.0,WeatherDisplay:10.37,2013-01-26 04:10:00,
2013-01-25 18:20:00,69.3,62.1,29.96,NE,34,0.0,2.0,78,0.00,SCT,SCT,0.00,0.0,WeatherDisplay:10.37,2013-01-26 04:20:00,
2013-01-25 18:30:00,69.1,62.3,29.96,NE,39,0.0,2.0,79,0.00,SCT,SCT,0.00,0.0,WeatherDisplay:10.37,2013-01-26 04:30:00,
2013-01-25 18:40:00,68.9,62.1,29.97,NE,40,0.0,3.0,79,0.00,SCT,SCT,0.00,0.0,WeatherDisplay:10.37,2013-01-26 04:40:00,
2013-01-25 18:50:00,68.4,61.6,29.97,ENE,75,0.0,5.0,79,0.00,SCT,SCT,0.00,0.0,WeatherDisplay:10.37,2013-01-26 04:50:00,
2013-01-25 19:00:00,68.0,61.6,29.97,East,81,0.0,3.0,80,0.00,SCT,SCT,0.00,0.0,WeatherDisplay:10.37,2013-01-26 05:00:00,
2013-01-25 19:10:00,67.7,61.3,29.97,East,82,0.0,2.0,80,0.00,SCT,SCT,0.00,0.0,WeatherDisplay:10.37,2013-01-26 05:10:00,
2013-01-25 19:20:00,67.6,61.2,29.98,East,82,0.0,1.0,80,0.00,SCT,SCT,0.00,0.0,WeatherDisplay:10.37,2013-01-26 05:20:00,
2013-01-25 19:30:00,67.5,61.4,29.98,East,82,0.0,0.0,81,0.00,SCT,SCT,0.00,0.0,WeatherDisplay:10.37,2013-01-26 05:30:00,
2013-01-25 19:40:00,67.3,61.6,29.98,East,82,1.0,2.0,82,0.00,SCT,SCT,0.00,0.0,WeatherDisplay:10.37,2013-01-26 05:40:00,
2013-01-25 19:50:00,67.2,61.5,29.98,East,87,0.0,4.0,82,0.00,SCT,SCT,0.00,0.0,WeatherDisplay:10.37,2013-01-26 05:50:00,
2013-01-25 20:00:00,67.0,61.3,29.98,East,91,0.0,2.0,82,0.00,SCT,SCT,0.00,0.0,WeatherDisplay:10.37,2013-01-26 06:00:00,
2013-01-25 20:10:00,66.7,61.4,29.98,East,91,0.0,0.0,83,0.00,FEW,SCT,0.00,0.0,WeatherDisplay:10.37,2013-01-26 06:10:00,
2013-01-25 20:20:00,66.4,61.4,29.98,East,82,1.0,4.0,84,0.00,FEW,SCT,0.00,0.0,WeatherDisplay:10.37,2013-01-26 06:20:00,
2013-01-25 20:30:00,66.2,61.2,29.98,East,94,0.0,3.0,84,0.00,FEW,SCT,0.00,0.0,WeatherDisplay:10.37,2013-01-26 06:30:00,
2013-01-25 20:40:00,66.1,61.5,29.98,East,100,0.0,1.0,85,0.00,FEW,SCT,0.00,0.0,WeatherDisplay:10.37,2013-01-26 06:40:00,
2013-01-25 20:50:00,65.9,61.3,29.98,East,100,1.0,2.0,85,0.00,FEW,SCT,0.00,0.0,WeatherDisplay:10.37,2013-01-26 06:50:00,
2013-01-25 21:00:00,65.6,61.3,29.97,East,100,0.0,3.0,86,0.00,FEW,SCT,0.00,0.0,WeatherDisplay:10.37,2013-01-26 07:00:00,
2013-01-25 21:10:00,65.1,60.5,29.97,East,100,0.0,2.0,85,0.00,SCT,SCT,0.00,0.0,WeatherDisplay:10.37,2013-01-26 07:10:00,
2013-01-25 21:20:00,64.7,60.4,29.98,East,100,0.0,1.0,86,0.00,SCT,SCT,0.00,0.0,WeatherDisplay:10.37,2013-01-26 07:20:00,
2013-01-25 21:30:00,64.2,59.9,29.98,East,99,2.0,3.0,86,0.00,SCT,SCT,0.00,0.0,WeatherDisplay:10.37,2013-01-26 07:30:00,
2013-01-25 21:40:00,63.6,59.3,29.98,ENE,70,1.0,6.0,86,0.00,SCT,SCT,0.00,0.0,WeatherDisplay:10.37,2013-01-26 07:40:00,
2013-01-25 21:50:00,63.2,58.9,29.98,East,87,0.0,3.0,86,0.00,SCT,SCT,0.00,0.0,WeatherDisplay:10.37,2013-01-26 07:50:00,
2013-01-25 22:00:00,62.7,58.5,29.98,East,89,0.0,2.0,86,0.00,SCT,SCT,0.00,0.0,WeatherDisplay:10.37,2013-01-26 08:00:00,
2013-01-25 22:10:00,62.3,58.1,29.98,East,90,0.0,2.0,86,0.00,CLR,SCT,0.00,0.0,WeatherDisplay:10.37,2013-01-26 08:10:00,
2013-01-25 22:20:00,61.8,57.9,29.98,East,90,0.0,2.0,87,0.00,CLR,SCT,0.00,0.0,WeatherDisplay:10.37,2013-01-26 08:20:00,
2013-01-25 22:30:00,61.5,57.6,29.98,East,90,0.0,2.0,87,0.00,CLR,SCT,0.00,0.0,WeatherDisplay:10.37,2013-01-26 08:30:00,
2013-01-25 22:40:00,61.0,57.1,29.98,East,90,0.0,2.0,87,0.00,CLR,SCT,0.00,0.0,WeatherDisplay:10.37,2013-01-26 08:40:00,
2013-01-25 22:50:00,60.7,56.8,29.98,East,91,1.0,3.0,87,0.00,CLR,SCT,0.00,0.0,WeatherDisplay:10.37,2013-01-26 08:50:00,
2013-01-25 23:00:00,60.3,56.1,29.98,East,101,2.0,4.0,86,0.00,CLR,SCT,0.00,0.0,WeatherDisplay:10.37,2013-01-26 09:00:00,
2013-01-25 23:10:00,60.0,55.5,29.98,ESE,103,0.0,4.0,85,0.00,CLR,SCT,0.00,0.0,WeatherDisplay:10.37,2013-01-26 09:10:00,
2013-01-25 23:20:00,59.8,55.3,29.98,ESE,103,0.0,3.0,85,0.00,CLR,SCT,0.00,0.0,WeatherDisplay:10.37,2013-01-26 09:20:00,
2013-01-25 23:30:00,59.5,55.0,29.98,ESE,109,1.0,4.0,85,0.00,CLR,SCT,0.00,0.0,WeatherDisplay:10.37,2013-01-26 09:30:00,
2013-01-25 23:40:00,59.3,55.1,29.97,ESE,113,1.0,3.0,86,0.00,CLR,SCT,0.00,0.0,WeatherDisplay:10.37,2013-01-26 09:40:00,
2013-01-25 23:50:00,59.3,55.4,29.98,ESE,114,1.0,4.0,87,0.00,CLR,SCT,0.00,0.0,WeatherDisplay:10.37,2013-01-26 09:50:00,